This is the latest recevied weather packets stored in our database for station/object SP4MAZ-13. If no packets are shown the sender has not sent any weather packets the latest 10 day(s).
| Time | Temp. | Humidity | Pressure | Rain* | Wind** | Luminosity | Snow |
|---|---|---|---|---|---|---|---|
| 1777890143 | 27.22° C | 25% | 2147.4 hPa | - | - | - | - |
| 1777889839 | 27.22° C | 26% | 2147.4 hPa | - | - | - | - |
| 1777889536 | 27.22° C | 27% | 2147.4 hPa | - | - | - | - |
| 1777889232 | 26.67° C | 28% | 2147.4 hPa | - | - | - | - |
| 1777888930 | 26.67° C | 26% | 2147.4 hPa | - | - | - | - |
| 1777888626 | 26.67° C | 27% | 2147.4 hPa | - | - | - | - |
| 1777888325 | 26.67° C | 28% | 2147.4 hPa | - | - | - | - |
| 1777888021 | 26.67° C | 26% | 2147.4 hPa | - | - | - | - |
| 1777887718 | 26.67° C | 27% | 2147.4 hPa | - | - | - | - |
| 1777887414 | 26.67° C | 29% | 2147.4 hPa | - | - | - | - |
| 1777887111 | 26.67° C | 27% | 2147.4 hPa | - | - | - | - |
| 1777886809 | 26.67° C | 29% | 2147.4 hPa | - | - | - | - |
| 1777886508 | 26.67° C | 29% | 2147.4 hPa | - | - | - | - |
| 1777886205 | 26.67° C | 27% | 2147.4 hPa | - | - | - | - |
| 1777885901 | 26.67° C | 29% | 2147.4 hPa | - | - | - | - |
| 1777885598 | 26.11° C | 29% | 2147.4 hPa | - | - | - | - |
| 1777885294 | 26.11° C | 29% | 2147.4 hPa | - | - | - | - |
| 1777884990 | 26.11° C | 27% | 2147.4 hPa | - | - | - | - |
| 1777884689 | 25.56° C | 30% | 2147.4 hPa | - | - | - | - |
| 1777884385 | 25° C | 30% | 2147.4 hPa | - | - | - | - |
| 1777884081 | 25.56° C | 30% | 2147.4 hPa | - | - | - | - |
| 1777883778 | 25° C | 30% | 2147.4 hPa | - | - | - | - |
| 1777883475 | 25.56° C | 31% | 2147.4 hPa | - | - | - | - |
| 1777883171 | 25.56° C | 30% | 2147.4 hPa | - | - | - | - |
| 1777882868 | 25° C | 32% | 2147.4 hPa | - | - | - | - |
* Rain since midnight (hover to see other rain measurements)
** Current wind speed in m/s (hover to see current wind gust speed)